When you browse on this site, cookies collect data to enhance your experience and personalize the content and advertising you see.
Visit our Privacy Policy to learn more. By continuing to use the site, you agree to this use of cookies and data.
  • In Lithuania
  • List of Countries
  • For 7 days
  • Water Temperature
  • Satellite Maps
  • Weather Map
  • Weather Widgets
  • user-avatar
    Login

    Hourly Weather Czyste

    Today, 25 March, Monday

    Time Temperature Precipitation Wind Pressure Humidity
    00:00 +6°C° 0 mm 1 mps 750 mmHg 62%
    01:00 +5°C° 0 mm 1 mps 749 mmHg 64%
    02:00 +5°C° 0 mm 1 mps 748 mmHg 66%
    03:00 +4°C° 0 mm 1 mps 748 mmHg 69%
    04:00 +4°C° 0 mm 1 mps 747 mmHg 71%
    05:00 +4°C° 0 mm 1 mps 747 mmHg 71%
    06:00 +4°C° 0 mm 1 mps 747 mmHg 71%
    07:00 +4°C° 0 mm 2 mps 746 mmHg 69%
    08:00 +4°C° 0 mm 3 mps 746 mmHg 64%
    09:00 +5°C° 0 mm 4 mps 745 mmHg 58%
    10:00 +7°C° 0 mm 5 mps 745 mmHg 53%
    11:00 +7°C° 0.2 mm 5 mps 745 mmHg 53%
    12:00 +7°C° 0.2 mm 5 mps 745 mmHg 53%
    13:00 +7°C° 0.2 mm 5 mps 745 mmHg 53%
    14:00 +7°C° 0.3 mm 5 mps 745 mmHg 56%
    15:00 +6°C° 0.3 mm 5 mps 745 mmHg 60%
    16:00 +6°C° 0.3 mm 5 mps 745 mmHg 63%
    17:00 +5°C° 0.1 mm 5 mps 746 mmHg 68%
    18:00 +4°C° 0.1 mm 4 mps 746 mmHg 73%
    19:00 +4°C° 0.1 mm 4 mps 747 mmHg 77%
    20:00 +3°C° 0.2 mm 4 mps 747 mmHg 79%
    21:00 +3°C° 0.2 mm 4 mps 748 mmHg 81%
    22:00 +3°C° 0.2 mm 4 mps 749 mmHg 83%
    23:00 +2°C° 0 mm 3 mps 749 mmHg 85%

    Tomorrow, 26 March, Tuesday

    Time Temperature Precipitation Wind Pressure Humidity
    00:00 +1°C° 0 mm 3 mps 750 mmHg 88%
    01:00 0°C° 0 mm 3 mps 750 mmHg 90%
    02:00 0°C° 0 mm 3 mps 750 mmHg 92%
    03:00 0°C° 0 mm 3 mps 751 mmHg 93%
    04:00 -1°C° 0 mm 3 mps 751 mmHg 95%
    05:00 0°C° 0 mm 3 mps 751 mmHg 93%
    06:00 -1°C° 0 mm 4 mps 752 mmHg 91%
    07:00 -1°C° 0 mm 4 mps 752 mmHg 89%
    08:00 +1°C° 0 mm 5 mps 752 mmHg 81%
    09:00 +3°C° 0 mm 7 mps 751 mmHg 72%
    10:00 +4°C° 0 mm 8 mps 751 mmHg 64%
    11:00 +5°C° 0.1 mm 9 mps 751 mmHg 62%
    12:00 +5°C° 0.1 mm 9 mps 750 mmHg 60%
    13:00 +5°C° 0.1 mm 10 mps 750 mmHg 59%
    14:00 +3°C° 0.1 mm 10 mps 750 mmHg 61%
    15:00 +3°C° 0.1 mm 10 mps 750 mmHg 63%
    16:00 +2°C° 0.1 mm 10 mps 750 mmHg 65%
    17:00 +2°C° 0.1 mm 8 mps 751 mmHg 65%
    18:00 +2°C° 0.1 mm 7 mps 752 mmHg 65%
    19:00 +2°C° 0.1 mm 5 mps 753 mmHg 64%
    20:00 +1°C° 0 mm 4 mps 753 mmHg 65%
    21:00 +1°C° 0 mm 3 mps 754 mmHg 65%
    22:00 +1°C° 0 mm 2 mps 754 mmHg 66%
    23:00 -1°C° 0 mm 2 mps 754 mmHg 66%

    Day after tomorrow, 27 March, Wednesday

    Time Temperature Precipitation Wind Pressure Humidity
    00:00 -1°C° 0 mm 2 mps 755 mmHg 66%
    01:00 -1°C° 0 mm 2 mps 755 mmHg 67%
    02:00 -1°C° 0 mm 2 mps 755 mmHg 69%
    03:00 -1°C° 0 mm 2 mps 755 mmHg 70%
    04:00 -1°C° 0 mm 2 mps 755 mmHg 72%
    05:00 -1°C° 0 mm 2 mps 756 mmHg 75%
    06:00 0°C° 0 mm 3 mps 756 mmHg 78%
    07:00 +1°C° 0 mm 3 mps 756 mmHg 80%
    08:00 +2°C° 0 mm 3 mps 756 mmHg 71%
    09:00 +4°C° 0 mm 4 mps 756 mmHg 63%
    10:00 +5°C° 0 mm 4 mps 756 mmHg 54%
    11:00 +5°C° 0.1 mm 4 mps 756 mmHg 60%
    12:00 +5°C° 0.1 mm 4 mps 756 mmHg 67%
    13:00 +5°C° 0.1 mm 4 mps 756 mmHg 73%
    14:00 +6°C° 0.1 mm 4 mps 756 mmHg 75%
    15:00 +6°C° 0.1 mm 4 mps 756 mmHg 77%
    16:00 +6°C° 0.1 mm 4 mps 756 mmHg 79%
    17:00 +5°C° 0 mm 3 mps 756 mmHg 82%
    18:00 +5°C° 0 mm 3 mps 756 mmHg 86%
    19:00 +5°C° 0 mm 2 mps 757 mmHg 89%
    20:00 +5°C° 0.1 mm 2 mps 757 mmHg 91%
    21:00 +5°C° 0.1 mm 2 mps 757 mmHg 93%
    22:00 +5°C° 0.1 mm 2 mps 757 mmHg 95%
    23:00 +5°C° 0.1 mm 2 mps 757 mmHg 96%

    28 March, Thursday

    Time Temperature Precipitation Wind Pressure Humidity
    00:00 +5°C° 0.1 mm 2 mps 757 mmHg 96%
    01:00 +5°C° 0.1 mm 2 mps 757 mmHg 96%
    02:00 +5°C° 0 mm 2 mps 758 mmHg 97%
    03:00 +5°C° 0 mm 2 mps 758 mmHg 97%
    04:00 +5°C° 0 mm 2 mps 758 mmHg 97%
    05:00 +5°C° 0.1 mm 2 mps 758 mmHg 97%
    06:00 +6°C° 0.1 mm 1 mps 758 mmHg 96%
    07:00 +7°C° 0.1 mm 1 mps 758 mmHg 95%
    08:00 +8°C° 0.2 mm 1 mps 758 mmHg 90%
    09:00 +9°C° 0.2 mm 1 mps 759 mmHg 84%
    10:00 +9°C° 0.2 mm 1 mps 759 mmHg 78%
    11:00 +10°C° 0.1 mm 1 mps 759 mmHg 73%
    12:00 +9°C° 0.1 mm 2 mps 759 mmHg 69%
    13:00 +10°C° 0.1 mm 2 mps 760 mmHg 64%
    14:00 +10°C° 0 mm 2 mps 760 mmHg 62%
    15:00 +12°C° 0 mm 2 mps 760 mmHg 59%
    16:00 +12°C° 0 mm 2 mps 760 mmHg 57%
    17:00 +10°C° 0 mm 2 mps 760 mmHg 64%
    18:00 +9°C° 0 mm 2 mps 760 mmHg 70%
    19:00 +8°C° 0 mm 1 mps 761 mmHg 77%
    20:00 +8°C° 0 mm 1 mps 761 mmHg 80%
    21:00 +7°C° 0 mm 1 mps 761 mmHg 84%
    22:00 +7°C° 0 mm 1 mps 762 mmHg 87%
    23:00 +6°C° 0 mm 1 mps 762 mmHg 88%

    29 March, Friday

    Time Temperature Precipitation Wind Pressure Humidity
    00:00 +6°C° 0 mm 1 mps 762 mmHg 88%
    01:00 +6°C° 0 mm 1 mps 762 mmHg 89%
    02:00 +6°C° 0 mm 1 mps 762 mmHg 89%
    03:00 +4°C° 0 mm 2 mps 762 mmHg 90%
    04:00 +4°C° 0 mm 2 mps 762 mmHg 91%
    05:00 +4°C° 0 mm 2 mps 762 mmHg 89%
    06:00 +4°C° 0 mm 3 mps 762 mmHg 87%
    07:00 +4°C° 0 mm 3 mps 762 mmHg 85%
    08:00 +7°C° 0 mm 3 mps 762 mmHg 78%
    09:00 +8°C° 0 mm 4 mps 762 mmHg 72%
    10:00 +10°C° 0 mm 4 mps 762 mmHg 66%
    11:00 +11°C° 0 mm 4 mps 762 mmHg 64%
    12:00 +12°C° 0 mm 5 mps 761 mmHg 62%
    13:00 +13°C° 0 mm 5 mps 761 mmHg 61%
    14:00 +14°C° 0 mm 5 mps 761 mmHg 62%
    15:00 +14°C° 0 mm 5 mps 760 mmHg 63%
    16:00 +14°C° 0 mm 4 mps 760 mmHg 64%
    17:00 +13°C° 0 mm 4 mps 760 mmHg 70%
    18:00 +11°C° 0 mm 3 mps 760 mmHg 76%
    19:00 +10°C° 0 mm 3 mps 760 mmHg 82%
    20:00 +10°C° 0 mm 3 mps 760 mmHg 85%
    21:00 +9°C° 0 mm 3 mps 760 mmHg 87%
    22:00 +8°C° 0 mm 3 mps 760 mmHg 89%
    23:00 +8°C° 0 mm 3 mps 760 mmHg 90%

    30 March, Saturday

    Time Temperature Precipitation Wind Pressure Humidity
    00:00 +8°C° 0 mm 2 mps 760 mmHg 91%
    01:00 +7°C° 0 mm 2 mps 759 mmHg 92%
    02:00 +7°C° 0 mm 2 mps 759 mmHg 93%
    03:00 +7°C° 0 mm 3 mps 759 mmHg 93%
    04:00 +5°C° 0 mm 3 mps 759 mmHg 94%
    05:00 +7°C° 0 mm 3 mps 759 mmHg 93%
    06:00 +7°C° 0 mm 3 mps 759 mmHg 92%
    07:00 +8°C° 0 mm 3 mps 759 mmHg 91%
    08:00 +10°C° 0 mm 3 mps 758 mmHg 84%
    09:00 +11°C° 0 mm 3 mps 758 mmHg 77%
    10:00 +13°C° 0 mm 3 mps 758 mmHg 70%
    11:00 +14°C° 0 mm 3 mps 757 mmHg 65%
    12:00 +15°C° 0 mm 4 mps 757 mmHg 60%
    13:00 +17°C° 0 mm 4 mps 756 mmHg 55%
    14:00 +17°C° 0 mm 3 mps 755 mmHg 54%
    15:00 +17°C° 0 mm 3 mps 755 mmHg 53%
    16:00 +17°C° 0 mm 3 mps 754 mmHg 52%
    17:00 +16°C° 0 mm 3 mps 753 mmHg 56%
    18:00 +14°C° 0 mm 2 mps 753 mmHg 60%
    19:00 +13°C° 0 mm 2 mps 753 mmHg 64%
    20:00 +12°C° 0 mm 2 mps 752 mmHg 65%
    21:00 +10°C° 0 mm 2 mps 752 mmHg 66%
    22:00 +10°C° 0 mm 3 mps 752 mmHg 67%
    23:00 +9°C° 0 mm 3 mps 751 mmHg 69%
    Show more